Regional Weather Roundup
Issued by NWS

Home | Current Version | Previous Version | Text Only | Print | Product List | Glossary On
Versions: 1 2 3 4 5 6 7 8 9 10 11 12 13 14 15 16 17 18 19 20 21 22 23 24 25 26 27 28 29 30 31 32 33 34 35 36 37 38 39 40 41 42 43 44 45 46 47 48 49 50
000
ASUS44 KLUB 181210
RWRTX
WEST TEXAS WEATHER ROUNDUP
NATIONAL WEATHER SERVICE LUBBOCK TX
700 AM CDT SAT APR 18 2015

NOTE: "FAIR" INDICATES FEW OR NO CLOUDS BELOW 12,000 FEET WITH NO
SIGNIFICANT WEATHER AND/OR OBSTRUCTIONS TO VISIBILITY.

TXZ004-006>008-010-012-014-016-OKZ002-181300-
TEXAS PANHANDLE/OKLAHOMA PANHANDLE

CITY           SKY/WX    TMP DP  RH WIND       PRES   REMARKS
AMARILLO       CLEAR     42  41  96 SW5       29.94S FOG
BORGER         CLOUDY    50  48  93 SW5       29.92F FOG
CANADIAN       MOCLDY    57  56  96 S6        29.90F
DALHART        CLEAR     36  27  69 W9        29.95S WCI  29
DUMAS          CLEAR     38  23  54 W9        29.93S WCI  32
GUYMON         PTCLDY    38  31  76 W9        29.90S WCI  31
HEREFORD       CLEAR     32  24  72 W3        29.96S
PAMPA          FOG       52  51  97 SW6       29.92F VSB 1/4
PERRYTON       MOCLDY    50  49  95 S7        29.90S
$$

TXZ026-029-035-045-048-181300-
SOUTHERN PANHANDLE/SOUTH PLAINS/ROLLING PLAINS

CITY           SKY/WX    TMP DP  RH WIND       PRES   REMARKS
CHILDRESS      FOG       54  54 100 SE5       29.93R VSB 1/4
SEMINOLE       PTCLDY    42  32  67 NW9       29.96R
LUBBOCK        FOG       45  45 100 NW12      29.93S VSB 3/4
PLAINVIEW      CLEAR     40  34  81 CALM      29.93S
SNYDER         PTCLDY   N/A N/A N/A SW5       29.93S
$$

TXZ052-054-060>062-072-078-127-140-154-169-181300-
PERMIAN BASIN/CONCHO VALLEY/BIG COUNTRY/EDWARDS PLATEAU

CITY           SKY/WX    TMP DP  RH WIND       PRES   REMARKS
ABILENE        CLOUDY    60  59  96 S5        29.94S FOG
BIG SPRING     PTCLDY    57  55  92 SE6       29.95S
BRADY          MOCLDY    55  55 100 NW3       29.92S
BROWNWOOD      FOG       57  57 100 CALM      29.92F VSB<1/4
JUNCTION       CLOUDY    60  59  96 CALM      29.92S
MIDLAND        PTCLDY    50  48  93 CALM      29.92F
ODESSA         PTCLDY    52  43  71 CALM      29.94S
SAN ANGELO     PTCLDY    57  55  93 SE5       29.93F
SONORA         CLOUDY    59  59 100 CALM      30.00R FOG
SWEETWATER     PTCLDY    56  56 100 S6        29.95F
WINK           MOCLDY    54  25  32 W3        29.92F
$$

TXZ055-058-074-075-080-082-181300-
FAR WEST/SOUTHWEST MOUNTAINS/TRANS PECOS

CITY           SKY/WX    TMP DP  RH WIND       PRES   REMARKS
ALPINE         PTCLDY    43  39  86 SW3       30.06F
DRYDEN           N/A     63  61  93 NE8       29.91S
EL PASO        PTCLDY    50  10  20 SW9       29.99S
FORT STOCKTON  CLOUDY    57  31  37 W7        29.96R
GUADALUPE PASS CLEAR     49   8  19 W7        30.04R
MARFA          MOCLDY    45  34  65 NW7       30.04S
PECOS          PTCLDY    49  33  52 S6        29.93F
PRESIDIO       FAIR      57  41  54 N6        29.96R
$$

TXZ014-016-019-021>030-083-181300
TEXAS TECH WEST TEXAS MESONET/TEXAS PANHANDLE/NORTHERN SOUTH PLAINS

CITY           SKY/WX    TMP DP  RH WIND       PRES   REMARKS
ABERNATHY 5ENE   N/A     47  46  97 NW7       29.95S
AMARILLO 9NNE    N/A     37  37 100 S1        29.93S
AMARILLO 7SSE    N/A     36  36  99 W6        29.94F WCI  32
AMHERST 1NE      N/A     38  27  64 W9        29.95F WCI  31
BOOTLEG 11WNW    N/A     31  22  66 W7        29.97F WCI  25
CANADIAN 6E      N/A     56  55  95 SE7       29.90S
CAPROCK CYN SP   N/A     55  55  98 SW5       29.93R
CLARENDON 2WSW   N/A     53  51  94 SE5       29.92S
CLAUDE 12SW      N/A     46  46  99 NW5       29.93S
DIMMITT 2NE      N/A     34  18  52 W5        29.95S WCI  30
FLOYDADA 2NNE    N/A     53  53  98 SW7       29.93S
FRIONA 2NE       N/A     29  21  70 W7        29.97S WCI  22
GOODLETT 3W      N/A     55  53  94 E5        29.92R
HART 3N          N/A     36  26  67 NW9       29.95S WCI  29
HEREFORD 2NW     N/A     32  19  58 SW8       29.95S WCI  25
MCLEAN 1E        N/A     53  52  98 S6        29.90S
MEMPHIS 1NE      N/A     54  53  98 SE2       29.92R
MULESHOE 2SSW    N/A     29  25  83 W6        29.97S WCI  23
OLTON 6S         N/A     36  29  76 W7        29.95S WCI  30
PALO DURO SP     N/A     43  41  95 W10       29.94F
PAMPA 2E         N/A     51  50  97 S3        29.92S
PLAINVIEW 1S     N/A     41  34  76 W2        29.94S
SILVERTON 7ESE   N/A     52  51  97 SW8       29.93S
TULIA 2ENE       N/A     39  35  87 W9        29.93S WCI  33
UMBARGER 3NNE    N/A     31  28  86 SW7       29.95S WCI  25
$$

TXZ033>036-039>041-045>048-181300
TEXAS TECH WEST TEXAS MESONET/SOUTH PLAINS

CITY           SKY/WX    TMP DP  RH WIND       PRES   REMARKS
AIKEN 3WSW       N/A     49  49 100 SW3       29.95S
ANDREWS 2NE      N/A     52  29  41 NW10      29.95R
ANTON 6SSW       N/A     40  29  65 NW8       29.95S WCI  34
BROWNFIELD 2S    N/A     41  31  68 NW10      29.95R
DENVR CTY 7WNW   N/A     38  30  72 NW9       29.96S WCI  32
GAIL 2ESE        N/A     54  53  96 SE5       29.92S
LAMESA 2SE       N/A     48  44  84 W5        29.94S
LEVELLAND 4S     N/A     38  29  69 NW9       29.96S WCI  32
LUBBOCK 3WNW     N/A     42  33  70 NW8       29.95R
MORTON 1ENE      N/A     37  28  71 W6        29.96F WCI  32
ODONNELL 1N      N/A     47  43  87 SW3       29.94S
PLAINS 3N        N/A     38  30  71 NW8       29.96F WCI  32
RALLS 1SE        N/A     55  54  99 SW7       29.94S
REESE CENTER     N/A     38  32  77 NW7       29.95S WCI  33
SEAGRAVES 1SW    N/A     40  32  73 NW8       29.94F
SEMINOLE 2NNE    N/A     43  32  65 NW8       29.94S
SLATON 2NE       N/A     52  51  97 SW3       29.94S
SNYDER 3E        N/A     53  53  98 S6        29.92S
SUNDOWN 8SW      N/A     36  29  75 NW8       29.96S WCI  30
TAHOKA 3NNE      N/A     44  44  98 W7        29.93S
WOLFFORTH 6SSW   N/A     42  34  73 NW8       29.95R
$$

TXZ031-032-036>038-042>044-181300-
TEXAS TECH WEST TEXAS MESONET/ROLLING PLAINS

CITY           SKY/WX    TMP DP  RH WIND       PRES   REMARKS
ASPERMONT 3NE    N/A     58  58  98 SE7       29.91S
FLUVANNA 3WNW    N/A     54  52  94 S7        29.92F
GRAHAM 5SSW      N/A     53  52  95 S2        29.93R
GUTHRIE 10WSW    N/A     58  57  96 S3        29.91S
HASKELL 1NW      N/A     60  58  96 S8        29.91F
KNOX CITY 3NW    N/A     59  56  90 S8        29.92S
LK A HENRY 1NW   N/A     54  53  98 S3        29.91S
NORTHFIELD 1S    N/A     56  55  98 S5        29.91S
ODELL 4ENE       N/A     57  57 100 SE5       29.92F
PADUCAH 10SW     N/A     57  56  96 S5        29.91S
POST 1NE         N/A     53  52  97 W1        29.92S
RRING SPRGS 3N   N/A     56  56  98 S6        29.91S
SEYMOUR 3NW      N/A     57  55  94 CALM      29.91F
SPUR 1W          N/A     56  55  96 SW1       29.91S
WEINERT 2NNE     N/A     59  59  97 SW7       29.92S
WHITE RVR 6NE    N/A     56  55  96 S5        29.92S
$$

TXZ052-054-060>062-072-078-127-140-154-169-181300-
TEXAS TECH WEST TEXAS MESONET/PERMIAN BASIN/
CONCHO VALLEY/BIG COUNTRY/EDWARDS PLATEAU

CITY           SKY/WX    TMP DP  RH WIND       PRES   REMARKS
COYANOSA 2N      N/A     50  32  50 S6        29.94S
JUNCTION 1SSW    N/A     59  59  98 CALM      29.92F
MERTZON 3NNE     N/A     56  54  92 S1        29.95S
SAN ANGELO 7NW   N/A     58  55  89 CALM      29.94S
STRLNG CT 4WSW   N/A     57  55  94 S1        29.94S
ST LAWRNCE 5SW   N/A     56  54  93 SE6       29.94R
SWEETWATR 11SW   N/A     57  55  94 S10       29.93F
WALL 1E          N/A     58  55  89 SW3       29.95R
$$

TXZ055-058-074-075-080-082-181300-
TEXAS TECH WEST TEXAS MESONET/FAR WEST/SOUTHWEST MOUNTAINS/TRANS PECOS

CITY           SKY/WX    TMP DP  RH WIND       PRES   REMARKS
PRSMN GAP BBNP   N/A     62  60  93 N8        29.94R
$$



USA.gov is the U.S. government's official web portal to all federal, state and local government web resources and services.